STARLINK-36252, 68533

Orbit data source: Space-Track

STARLINK-36252, 68533 is a payload satellite owned by SpaceX/Seattle (US) in LEO that was launched on Mon, 30 Mar 2026 UTC via an FALCON 9 launch vehicle from the Air Force Eastern Test Range (AFETR). Payload-class satellites include a variety of spacecraft equipped with specific instruments for various scientific and technological missions. These include communications satellites like Starlink; space stations such as the ISS; scientific satellites like the Hubble; Earth observation satellites from companies like Planet Labs, Umbra, and HawkEye 360; GPS; miniature CubeSats for education and research; and military/defense satellites.

Loading next visibility...
Identifier
68533, 2026-068AB
Orbit
LEO
Country
Flag of USUS
Related business
Manufacturer
SpaceX/Seattle
Mission
Operational spacecraft
Bus & Motor
STARLINK V2MO, Unknown motor
Mass
575 kg wet, ~530 kg dry
Launch date (UTC)
2026-03-30 (3 months ago)
Launch vehicle
FALCON 9
Launch site
Air Force Eastern Test Range (AFETR)
Object type
Payload
Rocket body
Debris
Shape & HBR
Unknown shape, 2.1 m
Radar Cross Section
Large (>1 m²)

Expand to show TLE details & history
Last TLE update: 1 day ago

TLE from 1 day ago
0 STARLINK-36252
1 68533U 26068AB  26170.85760625  .00033385  00000-0  99462-3 0  9997
2 68533  53.1578  12.8352 0000830  83.0439 277.0658 15.34406623 12614
Epoch: 2026-06-19T20:34Z
TLE epoch observation values (Epoch: 2026-06-19T20:34:57.179Z)
Latitude
-0.00005°
Longitude
156.01636°
Altitude
463.515 km
Speed
7.636 km/s
True Right ascension
00h 51m 20s
True Declination
0° 00' 00"
Sunlit
Object was in daylight at epoch
Visualization orbit readout
Latitude
Unknown
Longitude
Unknown
Altitude
Unknown
Speed
Unknown
Apparent Right ascension
Unknown
Apparent Declination
Unknown
Sunlit
N/A
Visualization observer readout
Local Sidereal Time
07:18:41
Azimuth
Unknown
Elevation
Unknown
Doppler factor
Unknown
Orbital elements
Apogee altitude
463.509 km
Perigee altitude
462.373 km
Semi-major axis
6,841.078 km
Eccentricity
0.00008
Inclination
53.1578°
RAAN
12.8352°
Arg. of periapsis
83.0439°
True anomaly
277.05636°
Mean anomaly
277.0658°
Eccentric anomaly
277.06108°
Mean motion
3.8358 °/min
Orbital period
93.85 mins
BSTAR
0.00099462
Loading maneuver chart data...
Computing Atmospheric mass density...
Loading historical data...
Loading historical data...
Loading historical data...
Loading historical data...
Loading historical data...
Loading historical data...
Loading historical data...

Documentation

Showing up to 5 results
|